PGT21V LTAF-LTFJ

Flight info

Callsign PGT21V
Flight time 1h 11m
Altitude 34000
Route KEMER UW75 AZBUL UT329 TOKER
Aircraft A320/M-SDE3FGHIRWY/LB1

Departure

Time 2026-04-20 14:07
Airport Adana Şakirpaşa Airport (LTAF)

Arrival

Time 2026-04-20 15:19
Airport Istanbul Sabiha Gökçen International Airport (LTFJ)
Time Latitude Longitude Altitude Speed Heading
2026-04-20 13:53 36.98413 35.29568 72 ft 0 kts 144°
2026-04-20 14:01 36.98423 35.29559 69 ft 4 kts 143°
2026-04-20 14:01 36.98445 35.29538 68 ft 4 kts 138°
2026-04-20 14:02 36.98463 35.29514 68 ft 4 kts 117°
2026-04-20 14:02 36.98466 35.29489 65 ft 2 kts 54°
2026-04-20 14:02 36.98465 35.29488 65 ft 0 kts 53°
2026-04-20 14:04 36.98466 35.29488 65 ft 0 kts 53°
2026-04-20 14:04 36.98472 35.29498 63 ft 3 kts 52°
2026-04-20 14:04 36.98499 35.29527 67 ft 7 kts 21°
2026-04-20 14:04 36.98562 35.29538 72 ft 10 kts 10°
2026-04-20 14:05 36.98631 35.29552 68 ft 10 kts
2026-04-20 14:05 36.98697 35.29507 69 ft 13 kts 320°
2026-04-20 14:05 36.98774 35.29436 72 ft 13 kts 324°
2026-04-20 14:05 36.98848 35.29366 68 ft 14 kts 321°
2026-04-20 14:06 36.98913 35.29303 71 ft 9 kts 322°
2026-04-20 14:06 36.98926 35.29237 74 ft 11 kts 233°
2026-04-20 14:06 36.98820 35.29067 69 ft 52 kts 234°
2026-04-20 14:06 36.98472 35.28483 68 ft 112 kts 233°
2026-04-20 14:07 36.97918 35.27542 73 ft 158 kts 233°
2026-04-20 14:07 36.97252 35.26390 601 ft 163 kts 232°
2026-04-20 14:07 36.96575 35.25238 1288 ft 164 kts 233°
2026-04-20 14:07 36.95893 35.24094 1942 ft 168 kts 236°
2026-04-20 14:08 36.95158 35.22858 2220 ft 188 kts 236°
2026-04-20 14:08 36.94327 35.21463 2460 ft 212 kts 235°
2026-04-20 14:08 36.93600 35.19770 2781 ft 233 kts 261°
2026-04-20 14:08 36.93824 35.17718 3265 ft 251 kts 298°
2026-04-20 14:09 36.95091 35.16197 4047 ft 262 kts 334°
2026-04-20 14:09 36.96882 35.15893 4973 ft 266 kts
2026-04-20 14:09 36.98515 35.16950 5916 ft 271 kts 43°
2026-04-20 14:09 36.99414 35.19018 6794 ft 279 kts 77°
2026-04-20 14:10 36.99354 35.21465 7634 ft 286 kts 100°
2026-04-20 14:10 36.98800 35.23868 8486 ft 290 kts 107°
2026-04-20 14:10 36.98196 35.26252 9300 ft 293 kts 98°
2026-04-20 14:10 36.98258 35.28785 9999 ft 294 kts 78°
2026-04-20 14:11 36.98385 35.31353 10710 ft 302 kts 98°
2026-04-20 14:11 36.97517 35.33752 11439 ft 310 kts 130°
2026-04-20 14:11 36.95766 35.35318 12166 ft 314 kts 161°
2026-04-20 14:11 36.93567 35.35678 12463 ft 330 kts 190°
2026-04-20 14:12 36.91397 35.34650 12637 ft 344 kts 219°
2026-04-20 14:12 36.89833 35.32393 13024 ft 347 kts 247°
2026-04-20 14:12 36.89296 35.29490 13604 ft 346 kts 274°
2026-04-20 14:12 36.89888 35.26615 14190 ft 344 kts 300°
2026-04-20 14:13 36.91309 35.24225 14797 ft 344 kts 320°
2026-04-20 14:13 36.93342 35.22657 15480 ft 345 kts 333°
2026-04-20 14:13 36.95436 35.21185 16159 ft 346 kts 326°
2026-04-20 14:13 36.97362 35.19379 16812 ft 347 kts 322°
2026-04-20 14:14 36.99281 35.17597 17437 ft 349 kts 325°
2026-04-20 14:14 37.01314 35.15853 18080 ft 350 kts 327°
2026-04-20 14:14 37.03347 35.14238 18613 ft 352 kts 329°
2026-04-20 14:14 37.05454 35.12657 19138 ft 354 kts 330°
2026-04-20 14:15 37.07594 35.11104 19680 ft 356 kts 330°
2026-04-20 14:15 37.09752 35.09562 20190 ft 358 kts 330°
2026-04-20 14:15 37.11924 35.08009 20702 ft 360 kts 330°
2026-04-20 14:15 37.14104 35.06441 21211 ft 362 kts 330°
2026-04-20 14:16 37.16288 35.04853 21704 ft 364 kts 330°
2026-04-20 14:16 37.18484 35.03246 22191 ft 366 kts 330°
2026-04-20 14:16 37.20684 35.01631 22673 ft 368 kts 330°
2026-04-20 14:16 37.22900 35.00006 23141 ft 370 kts 330°
2026-04-20 14:17 37.25136 34.98367 23563 ft 373 kts 330°
2026-04-20 14:17 37.27352 34.96740 23900 ft 376 kts 329°
2026-04-20 14:17 37.29622 34.95073 24257 ft 378 kts 329°
2026-04-20 14:17 37.31903 34.93398 24631 ft 381 kts 329°
2026-04-20 14:18 37.34201 34.91707 24994 ft 383 kts 329°
2026-04-20 14:18 37.36504 34.90011 25344 ft 385 kts 329°
2026-04-20 14:18 37.38827 34.88299 25688 ft 388 kts 329°
2026-04-20 14:18 37.41161 34.86577 26051 ft 390 kts 329°
2026-04-20 14:19 37.43505 34.84848 26370 ft 392 kts 329°
2026-04-20 14:19 37.45872 34.83101 26732 ft 395 kts 329°
2026-04-20 14:19 37.48251 34.81345 27048 ft 397 kts 329°
2026-04-20 14:19 37.50618 34.79594 27385 ft 400 kts 329°
2026-04-20 14:20 37.53026 34.77814 27717 ft 402 kts 329°
2026-04-20 14:20 37.55444 34.76025 28047 ft 404 kts 329°
2026-04-20 14:20 37.57872 34.74229 28376 ft 406 kts 329°
2026-04-20 14:20 37.60320 34.72415 28674 ft 409 kts 328°
2026-04-20 14:21 37.62777 34.70578 28916 ft 413 kts 328°
2026-04-20 14:21 37.65248 34.68712 29153 ft 415 kts 328°
2026-04-20 14:21 37.67734 34.66823 29428 ft 417 kts 328°
2026-04-20 14:21 37.70225 34.64927 29684 ft 419 kts 328°
2026-04-20 14:22 37.72736 34.63014 29964 ft 421 kts 328°
2026-04-20 14:22 37.75251 34.61099 30185 ft 423 kts 328°
2026-04-20 14:22 37.77780 34.59176 30403 ft 425 kts 328°
2026-04-20 14:22 37.80321 34.57242 30625 ft 427 kts 328°
2026-04-20 14:23 37.82863 34.55304 30933 ft 426 kts 328°
2026-04-20 14:23 37.85403 34.53368 31261 ft 425 kts 328°
2026-04-20 14:23 37.87933 34.51437 31575 ft 424 kts 327°
2026-04-20 14:23 37.90462 34.49508 31908 ft 424 kts 327°
2026-04-20 14:24 37.92992 34.47593 32211 ft 423 kts 328°
2026-04-20 14:24 37.95528 34.45694 32504 ft 423 kts 328°
2026-04-20 14:24 37.98070 34.43803 32905 ft 423 kts 328°
2026-04-20 14:24 38.00609 34.41916 33248 ft 423 kts 328°
2026-04-20 14:25 38.03149 34.40024 33561 ft 422 kts 328°
2026-04-20 14:25 38.05681 34.38133 33869 ft 422 kts 327°
2026-04-20 14:25 38.08205 34.36242 33978 ft 420 kts 327°
2026-04-20 14:25 38.10680 34.34379 34000 ft 417 kts 327°
2026-04-20 14:26 38.15664 34.30618 33999 ft 416 kts 327°
2026-04-20 14:26 38.20642 34.26860 34009 ft 416 kts 327°
2026-04-20 14:27 38.25624 34.23107 34009 ft 416 kts 328°
2026-04-20 14:27 38.30599 34.19353 34007 ft 416 kts 327°
2026-04-20 14:28 38.35573 34.15584 34006 ft 416 kts 327°
2026-04-20 14:28 38.40513 34.11827 34010 ft 416 kts 327°
2026-04-20 14:29 38.45488 34.08042 34011 ft 416 kts 327°
2026-04-20 14:29 38.50469 34.04256 34029 ft 416 kts 327°
2026-04-20 14:30 38.55437 34.00459 34022 ft 416 kts 327°
2026-04-20 14:30 38.60401 33.96628 34025 ft 417 kts 327°
2026-04-20 14:31 38.65367 33.92807 34019 ft 417 kts 327°
2026-04-20 14:31 38.70340 33.88970 34015 ft 417 kts 327°
2026-04-20 14:32 38.75271 33.85144 34010 ft 417 kts 327°
2026-04-20 14:32 38.80237 33.81292 34013 ft 417 kts 327°
2026-04-20 14:33 38.85204 33.77452 34008 ft 416 kts 327°
2026-04-20 14:33 38.90158 33.73605 34005 ft 416 kts 327°
2026-04-20 14:34 38.95111 33.69755 33998 ft 416 kts 327°
2026-04-20 14:34 39.00065 33.65892 33989 ft 416 kts 327°
2026-04-20 14:35 39.05020 33.62013 33997 ft 417 kts 327°
2026-04-20 14:35 39.09972 33.58131 33997 ft 417 kts 327°
2026-04-20 14:36 39.14897 33.54273 33993 ft 417 kts 327°
2026-04-20 14:36 39.19852 33.50388 33992 ft 417 kts 327°
2026-04-20 14:37 39.24814 33.46500 33989 ft 417 kts 327°
2026-04-20 14:37 39.29800 33.42668 34001 ft 417 kts 327°
2026-04-20 14:38 39.33961 33.39484 34000 ft 417 kts 327°
2026-04-20 14:38 39.39364 33.34379 33994 ft 414 kts 312°
2026-04-20 14:39 39.42482 33.29623 33990 ft 413 kts 309°
2026-04-20 14:39 39.46167 33.23909 33985 ft 413 kts 309°
2026-04-20 14:40 39.49835 33.18245 33983 ft 413 kts 309°
2026-04-20 14:40 39.53525 33.12529 33982 ft 413 kts 309°
2026-04-20 14:41 39.57204 33.06793 33981 ft 413 kts 309°
2026-04-20 14:41 39.60876 33.01056 33988 ft 413 kts 309°
2026-04-20 14:42 39.64553 32.95323 33982 ft 413 kts 309°
2026-04-20 14:42 39.68230 32.89578 33982 ft 413 kts 309°
2026-04-20 14:43 39.71896 32.83834 33977 ft 413 kts 308°
2026-04-20 14:43 39.75561 32.78074 33974 ft 413 kts 308°
2026-04-20 14:44 39.79220 32.72318 33972 ft 413 kts 308°
2026-04-20 14:44 39.82859 32.66586 33970 ft 413 kts 308°
2026-04-20 14:45 39.86513 32.60809 33969 ft 413 kts 308°
2026-04-20 14:45 39.90167 32.55032 33967 ft 413 kts 308°
2026-04-20 14:46 39.93823 32.49254 33967 ft 413 kts 308°
2026-04-20 14:46 39.97467 32.43462 33967 ft 413 kts 308°
2026-04-20 14:47 40.00819 32.37472 33967 ft 412 kts 297°
2026-04-20 14:48 40.03416 32.26836 33965 ft 411 kts 284°
2026-04-20 14:48 40.04823 32.19587 33960 ft 412 kts 284°
2026-04-20 14:49 40.06224 32.12340 33957 ft 412 kts 284°
2026-04-20 14:49 40.07617 32.05084 33959 ft 412 kts 284°
2026-04-20 14:50 40.09010 31.97821 33961 ft 412 kts 284°
2026-04-20 14:50 40.10394 31.90556 33957 ft 412 kts 284°
2026-04-20 14:51 40.11764 31.83331 33957 ft 412 kts 284°
2026-04-20 14:51 40.13137 31.76065 33958 ft 412 kts 284°
2026-04-20 14:52 40.14512 31.68785 33956 ft 412 kts 283°
2026-04-20 14:52 40.15875 31.61512 33956 ft 412 kts 283°
2026-04-20 14:53 40.17237 31.54243 33960 ft 411 kts 283°
2026-04-20 14:53 40.18593 31.46960 33964 ft 411 kts 283°
2026-04-20 14:54 40.19946 31.39692 33965 ft 411 kts 283°
2026-04-20 14:54 40.21290 31.32458 33944 ft 413 kts 283°
2026-04-20 14:55 40.22640 31.25137 33945 ft 415 kts 283°
2026-04-20 14:55 40.23986 31.17773 33946 ft 415 kts 283°
2026-04-20 14:56 40.25334 31.10403 33956 ft 416 kts 283°
2026-04-20 14:56 40.26681 31.03030 33963 ft 416 kts 283°
2026-04-20 14:57 40.28018 30.95644 33960 ft 417 kts 283°
2026-04-20 14:57 40.29341 30.88307 33965 ft 417 kts 283°
2026-04-20 14:58 40.30673 30.80919 33965 ft 416 kts 283°
2026-04-20 14:58 40.31326 30.77220 33686 ft 417 kts 280°
2026-04-20 14:58 40.31770 30.73480 32678 ft 412 kts 278°
2026-04-20 14:58 40.32178 30.69778 31613 ft 408 kts 278°
2026-04-20 14:59 40.32573 30.66119 30634 ft 404 kts 278°
2026-04-20 14:59 40.32961 30.62490 29638 ft 399 kts 279°
2026-04-20 14:59 40.33347 30.58900 28569 ft 395 kts 279°
2026-04-20 14:59 40.33729 30.55363 27586 ft 390 kts 279°
2026-04-20 15:00 40.34107 30.51864 26625 ft 385 kts 279°
2026-04-20 15:00 40.34478 30.48408 25694 ft 380 kts 279°
2026-04-20 15:00 40.34845 30.44997 24782 ft 376 kts 279°
2026-04-20 15:00 40.35216 30.41619 23897 ft 373 kts 279°
2026-04-20 15:01 40.35608 30.38280 22942 ft 369 kts 280°
2026-04-20 15:01 40.36009 30.34970 22006 ft 365 kts 280°
2026-04-20 15:01 40.36407 30.31700 21133 ft 361 kts 280°
2026-04-20 15:01 40.36796 30.28468 20297 ft 357 kts 280°
2026-04-20 15:02 40.37172 30.25308 19492 ft 353 kts 280°
2026-04-20 15:02 40.37846 30.22247 18731 ft 347 kts 296°
2026-04-20 15:02 40.39191 30.19657 17921 ft 343 kts 314°
2026-04-20 15:02 40.41080 30.17795 17080 ft 339 kts 333°
2026-04-20 15:03 40.43301 30.16839 16280 ft 337 kts 351°
2026-04-20 15:03 40.45631 30.16757 15503 ft 334 kts
2026-04-20 15:03 40.47948 30.16830 14927 ft 333 kts 360°
2026-04-20 15:03 40.50259 30.16899 14533 ft 331 kts 360°
2026-04-20 15:04 40.52556 30.16964 14139 ft 329 kts 360°
2026-04-20 15:04 40.54843 30.17026 13744 ft 327 kts 360°
2026-04-20 15:04 40.57111 30.17086 13318 ft 324 kts 359°
2026-04-20 15:04 40.59357 30.17144 12914 ft 321 kts 360°
2026-04-20 15:05 40.61554 30.17200 12526 ft 318 kts 360°
2026-04-20 15:05 40.63761 30.17258 12190 ft 314 kts 360°
2026-04-20 15:05 40.65922 30.17318 11889 ft 309 kts 360°
2026-04-20 15:05 40.68070 30.17377 11509 ft 307 kts
2026-04-20 15:06 40.70201 30.17436 11122 ft 306 kts
2026-04-20 15:06 40.72326 30.17495 10751 ft 304 kts
2026-04-20 15:06 40.74401 30.17537 10634 ft 292 kts 356°
2026-04-20 15:06 40.76331 30.17012 10570 ft 280 kts 336°
2026-04-20 15:07 40.77968 30.15624 10508 ft 282 kts 316°
2026-04-20 15:07 40.79208 30.13617 10463 ft 283 kts 307°
2026-04-20 15:07 40.80369 30.11567 10402 ft 283 kts 307°
2026-04-20 15:07 40.81546 30.09487 10337 ft 283 kts 307°
2026-04-20 15:08 40.82737 30.07382 10269 ft 282 kts 307°
2026-04-20 15:08 40.83897 30.05328 10213 ft 282 kts 307°
2026-04-20 15:08 40.85070 30.03249 10154 ft 280 kts 307°
2026-04-20 15:08 40.86203 30.01235 10090 ft 268 kts 307°
2026-04-20 15:09 40.87296 29.99291 10009 ft 265 kts 307°
2026-04-20 15:09 40.88431 29.97277 9897 ft 276 kts 307°
2026-04-20 15:09 40.89585 29.95230 9769 ft 279 kts 307°
2026-04-20 15:09 40.90741 29.93176 9633 ft 279 kts 307°
2026-04-20 15:10 40.91895 29.91120 9498 ft 279 kts 307°
2026-04-20 15:10 40.93056 29.89055 9077 ft 280 kts 307°
2026-04-20 15:10 40.94218 29.86984 8617 ft 281 kts 307°
2026-04-20 15:10 40.95378 29.84913 8257 ft 278 kts 307°
2026-04-20 15:11 40.96540 29.82835 7702 ft 283 kts 306°
2026-04-20 15:11 40.97703 29.80757 7205 ft 276 kts 306°
2026-04-20 15:11 40.98824 29.78749 6764 ft 266 kts 306°
2026-04-20 15:11 40.99909 29.76808 6330 ft 258 kts 306°
2026-04-20 15:12 41.00956 29.74934 6043 ft 246 kts 306°
2026-04-20 15:12 41.01926 29.73140 5984 ft 233 kts 299°
2026-04-20 15:12 41.02479 29.71211 5903 ft 224 kts 280°
2026-04-20 15:12 41.02504 29.69165 5805 ft 223 kts 261°
2026-04-20 15:13 41.02010 29.67195 5362 ft 232 kts 245°
2026-04-20 15:13 41.01301 29.65269 5125 ft 229 kts 244°
2026-04-20 15:13 41.00622 29.63428 5116 ft 216 kts 244°
2026-04-20 15:13 40.99978 29.61664 5120 ft 211 kts 244°
2026-04-20 15:14 40.99345 29.59924 5120 ft 207 kts 244°
2026-04-20 15:14 40.98722 29.58214 4904 ft 205 kts 244°
2026-04-20 15:14 40.98105 29.56521 4609 ft 203 kts 244°
2026-04-20 15:14 40.97490 29.54836 4291 ft 203 kts 244°
2026-04-20 15:15 40.96884 29.53175 3981 ft 196 kts 244°
2026-04-20 15:15 40.96299 29.51574 3676 ft 190 kts 243°
2026-04-20 15:15 40.95731 29.50018 3388 ft 186 kts 243°
2026-04-20 15:15 40.95171 29.48488 3102 ft 184 kts 243°
2026-04-20 15:16 40.94617 29.46974 2812 ft 179 kts 243°
2026-04-20 15:16 40.94100 29.45561 2537 ft 168 kts 243°
2026-04-20 15:16 40.93599 29.44191 2283 ft 163 kts 243°
2026-04-20 15:16 40.93106 29.42847 2038 ft 161 kts 243°
2026-04-20 15:17 40.92623 29.41526 1778 ft 157 kts 243°
2026-04-20 15:17 40.92153 29.40247 1526 ft 153 kts 243°
2026-04-20 15:17 40.91698 29.39007 1295 ft 147 kts 243°
2026-04-20 15:17 40.91260 29.37813 1074 ft 142 kts 244°
2026-04-20 15:18 40.90832 29.36644 845 ft 140 kts 244°
2026-04-20 15:18 40.90413 29.35495 642 ft 138 kts 243°
2026-04-20 15:18 40.89993 29.34349 425 ft 138 kts 244°
2026-04-20 15:18 40.89584 29.33241 298 ft 128 kts 244°
2026-04-20 15:19 40.89277 29.32406 301 ft 61 kts 244°
2026-04-20 15:19 40.89170 29.32108 301 ft 33 kts 245°
2026-04-20 15:19 40.89123 29.31842 303 ft 30 kts 266°
2026-04-20 15:19 40.89134 29.31604 301 ft 21 kts 274°
2026-04-20 15:20 40.89166 29.31437 300 ft 17 kts 341°
2026-04-20 15:20 40.89255 29.31494 303 ft 16 kts 66°
2026-04-20 15:20 40.89307 29.31632 303 ft 20 kts 63°
2026-04-20 15:20 40.89379 29.31825 302 ft 27 kts 65°
2026-04-20 15:21 40.89463 29.32058 303 ft 30 kts 65°
2026-04-20 15:21 40.89545 29.32263 304 ft 15 kts 57°
2026-04-20 15:21 40.89627 29.32324 303 ft 19 kts 327°
2026-04-20 15:21 40.89757 29.32239 307 ft 23 kts 334°
2026-04-20 15:22 40.89912 29.32144 310 ft 26 kts 333°
2026-04-20 15:22 40.90057 29.32051 311 ft 20 kts 340°
2026-04-20 15:22 40.90125 29.32154 311 ft 18 kts 66°
2026-04-20 15:22 40.90192 29.32334 311 ft 25 kts 64°
2026-04-20 15:23 40.90247 29.32487 310 ft 29 kts 65°
2026-04-20 15:23 40.90329 29.32586 310 ft 9 kts 332°
2026-04-20 15:23 40.90423 29.32520 313 ft 22 kts 332°
2026-04-20 15:23 40.90566 29.32428 311 ft 20 kts 334°
2026-04-20 15:24 40.90653 29.32313 311 ft 19 kts 329°
2026-04-20 15:24 40.90727 29.32260 311 ft 15 kts 310°
2026-04-20 15:24 40.90706 29.32134 311 ft 15 kts 243°
2026-04-20 15:24 40.90661 29.32010 311 ft 12 kts 245°
2026-04-20 15:25 40.90633 29.31932 311 ft 3 kts 244°
2026-04-20 15:25 40.90630 29.31913 311 ft 1 kts 274°
2026-04-20 15:25 40.90661 29.31883 311 ft 6 kts 338°
2026-04-20 15:25 40.90693 29.31863 311 ft 3 kts 332°
2026-04-20 15:26 40.90708 29.31854 311 ft 2 kts 335°
2026-04-20 15:26 40.90713 29.31851 311 ft 0 kts 334°